Home   Weather   Prescott   Past weeks

Flag for USA Past Weather in Prescott, Arizona, USA — Yesterday and Last 2 Weeks

Now
73 °F

Sunny.


Feels Like: 76 °F
Forecast: 51 / 73 °F
Wind: 20 mph from West

Location: Love Field

Current Time: Apr 27, 2017 at 3:50:39 pm

Latest Report: Apr 27, 2017 at 2:53 pm


Visibility: 10 mi

Pressure: 29.56 "Hg (24.47 "Hg at 1635m altitude)

Humidity: 25%

Dew Point: 35 °F

Location of PrescottLocation

Past Weather in Prescott — Graph

°F

Prescott Temperature Yesterday

Maximum temperature yesterday: 73 °F (at 2:53 pm)
Minimum temperature yesterday: 40 °F (at 5:53 am)
Average temperature yesterday: 58 °F

High & Low Weather Summary for the Past Weeks

 TemperatureHumidityPressure
High80 °F (Apr 22, 3:53 pm)71% (Apr 19, 5:53 am)29.98 "Hg (Apr 19, 5:53 am)
Low37 °F (Apr 15, 5:53 am)6% (Apr 19, 3:53 pm)29.52 "Hg (Apr 25, 1:53 am)
Average60 °F29%29.84 "Hg
* Reported Apr 12 1:53 pm — Apr 27 1:53 pm, Prescott, Weather by CustomWeather, © 2017

Note: Actual official high and low records may vary slightly from our data, if they occured in-between our weather recording intervals... More about our weather records

Advertising

Prescott Weather History for the Previous 24 Hours

Scroll right to see more
 ConditionsComfort  
Time TempWeatherWind HumidityBarometerVisibility
1:53 pm
Thu, Apr 27
73 °FScattered clouds.20 mph24%29.57 "Hg10 mi
12:53 pm73 °FPassing clouds.16 mph22%29.58 "Hg10 mi
11:53 am70 °FPassing clouds.8 mph28%29.60 "Hg10 mi
10:53 am69 °FPassing clouds.9 mph31%29.61 "Hg10 mi
9:53 am66 °FSunny.5 mph34%29.64 "Hg10 mi
8:53 am64 °FSunny.13 mph38%29.63 "Hg10 mi
7:53 am61 °FSunny.16 mph39%29.64 "Hg9 mi
6:53 am57 °FSunny.12 mph41%29.63 "Hg10 mi
5:53 am57 °FSunny.8 mph41%29.61 "Hg10 mi
4:53 am57 °FClear.10 mph41%29.59 "Hg10 mi
3:53 am58 °FClear.9 mph36%29.59 "Hg10 mi
2:53 am58 °FClear.17 mph38%29.59 "Hg10 mi
1:53 am59 °FClear.12 mph36%29.61 "Hg10 mi
12:53 am60 °FClear.10 mph30%29.64 "Hg10 mi
11:53 pm
Wed, Apr 26
60 °FClear.7 mph27%29.66 "Hg10 mi
10:53 pm60 °FClear.No wind27%29.65 "Hg10 mi
9:53 pm60 °FClear.5 mph28%29.68 "Hg10 mi
8:53 pm61 °FClear.9 mph25%29.71 "Hg10 mi
7:53 pm63 °FClear.7 mph21%29.71 "Hg10 mi
6:53 pm65 °FSunny.16 mph19%29.73 "Hg10 mi
5:53 pm69 °FSunny.12 mph18%29.72 "Hg9 mi
4:53 pm70 °FPassing clouds.16 mph19%29.71 "Hg10 mi
3:53 pm71 °FSunny.20 mph19%29.73 "Hg10 mi
Weather by CustomWeather, © 2017

See weather overviewHow to use our weather pages